TimeCDT,TemperatureF,Dew PointF,Humidity,Sea Level PressureIn,VisibilityMPH,Wind Direction,Wind SpeedMPH,Gust SpeedMPH,PrecipitationIn,Events,Conditions,WindDirDegrees,DateUTC
12:15 AM,75.2,64.4,69,29.78,10.0,South,15.0,-,N/A,,Partly Cloudy,180,2013-08-31 05:15:00
12:35 AM,75.2,62.6,65,29.78,10.0,SSW,9.2,-,N/A,,Clear,210,2013-08-31 05:35:00
12:55 AM,75.2,64.4,69,29.77,10.0,SW,8.1,-,N/A,,Clear,220,2013-08-31 05:55:00
1:15 AM,75.2,62.6,65,29.76,10.0,South,11.5,-,N/A,,Clear,190,2013-08-31 06:15:00
1:35 AM,73.4,62.6,69,29.77,10.0,South,4.6,-,N/A,,Clear,170,2013-08-31 06:35:00
1:55 AM,73.4,62.6,69,29.77,7.0,South,3.5,-,N/A,,Clear,190,2013-08-31 06:55:00
2:15 AM,73.4,62.6,69,29.77,10.0,SW,4.6,-,N/A,,Clear,220,2013-08-31 07:15:00
2:35 AM,73.4,64.4,73,29.76,10.0,SW,8.1,-,N/A,,Clear,230,2013-08-31 07:35:00
2:55 AM,73.4,62.6,69,29.75,10.0,WSW,12.7,-,N/A,,Clear,240,2013-08-31 07:55:00
3:15 AM,73.4,60.8,65,29.76,10.0,SW,16.1,21.9,N/A,,Clear,230,2013-08-31 08:15:00
3:35 AM,71.6,60.8,69,29.77,10.0,WSW,8.1,-,N/A,,Clear,240,2013-08-31 08:35:00
3:55 AM,69.8,60.8,73,29.76,10.0,WSW,5.8,-,N/A,,Clear,250,2013-08-31 08:55:00
4:15 AM,69.8,60.8,73,29.76,10.0,WSW,8.1,-,N/A,,Clear,250,2013-08-31 09:15:00
4:35 AM,71.6,60.8,69,29.76,10.0,West,8.1,-,N/A,,Clear,260,2013-08-31 09:35:00
4:55 AM,71.6,60.8,69,29.76,10.0,WSW,13.8,-,N/A,,Clear,250,2013-08-31 09:55:00
5:15 AM,71.6,60.8,69,29.76,10.0,WSW,11.5,-,N/A,,Clear,250,2013-08-31 10:15:00
5:35 AM,69.8,60.8,73,29.76,10.0,WSW,8.1,-,N/A,,Clear,250,2013-08-31 10:35:00
5:55 AM,69.8,59.0,68,29.76,10.0,WSW,5.8,-,N/A,,Clear,240,2013-08-31 10:55:00
6:15 AM,69.8,59.0,68,29.76,10.0,SW,3.5,-,N/A,,Clear,230,2013-08-31 11:15:00
6:35 AM,69.8,59.0,68,29.77,10.0,Calm,Calm,-,N/A,,Clear,0,2013-08-31 11:35:00
6:55 AM,69.8,57.2,64,29.77,10.0,WNW,5.8,-,N/A,,Clear,290,2013-08-31 11:55:00
7:15 AM,68.0,57.2,68,29.77,10.0,WNW,5.8,-,N/A,,Clear,300,2013-08-31 12:15:00
7:35 AM,66.2,57.2,73,29.77,10.0,NNE,3.5,-,N/A,,Clear,30,2013-08-31 12:35:00
7:55 AM,68.0,59.0,73,29.77,10.0,NNW,3.5,-,N/A,,Clear,330,2013-08-31 12:55:00
8:15 AM,69.8,60.8,73,29.77,10.0,NNW,3.5,-,N/A,,Clear,330,2013-08-31 13:15:00
8:35 AM,71.6,59.0,64,29.77,10.0,West,8.1,-,N/A,,Clear,270,2013-08-31 13:35:00
8:55 AM,73.4,59.0,61,29.76,10.0,West,9.2,-,N/A,,Clear,260,2013-08-31 13:55:00
9:15 AM,73.4,60.8,65,29.76,10.0,West,11.5,-,N/A,,Clear,260,2013-08-31 14:15:00
9:35 AM,73.4,60.8,65,29.75,10.0,West,10.4,-,N/A,,Clear,260,2013-08-31 14:35:00
9:55 AM,73.4,60.8,65,29.74,10.0,WSW,10.4,-,N/A,,Clear,250,2013-08-31 14:55:00
10:15 AM,75.2,60.8,61,29.73,10.0,WSW,11.5,-,N/A,,Clear,240,2013-08-31 15:15:00
10:35 AM,75.2,62.6,65,29.75,10.0,WSW,16.1,-,N/A,,Clear,250,2013-08-31 15:35:00
10:55 AM,75.2,64.4,69,29.75,10.0,West,12.7,-,N/A,,Mostly Cloudy,270,2013-08-31 15:55:00
11:15 AM,73.4,64.4,73,29.74,10.0,West,9.2,17.3,N/A,,Mostly Cloudy,280,2013-08-31 16:15:00
11:35 AM,75.2,64.4,69,29.75,10.0,West,11.5,-,N/A,,Mostly Cloudy,260,2013-08-31 16:35:00
11:55 AM,75.2,64.4,69,29.76,10.0,WSW,15.0,-,N/A,,Mostly Cloudy,240,2013-08-31 16:55:00
12:15 PM,75.2,64.4,69,29.75,10.0,WSW,11.5,20.7,N/A,,Mostly Cloudy,240,2013-08-31 17:15:00
12:35 PM,73.4,64.4,73,29.75,10.0,West,15.0,-,N/A,,Clear,260,2013-08-31 17:35:00
12:55 PM,75.2,62.6,65,29.76,10.0,West,16.1,20.7,N/A,,Clear,270,2013-08-31 17:55:00
1:15 PM,75.2,62.6,65,29.76,10.0,West,18.4,-,N/A,,Clear,270,2013-08-31 18:15:00
1:35 PM,75.2,62.6,65,29.76,10.0,West,18.4,-,N/A,,Clear,270,2013-08-31 18:35:00
1:55 PM,77.0,60.8,57,29.76,10.0,WNW,15.0,24.2,N/A,,Clear,290,2013-08-31 18:55:00
2:15 PM,77.0,60.8,57,29.75,10.0,West,17.3,21.9,N/A,,Clear,280,2013-08-31 19:15:00
2:35 PM,78.8,60.8,54,29.75,10.0,West,17.3,21.9,N/A,,Clear,280,2013-08-31 19:35:00
2:55 PM,78.8,59.0,51,29.74,10.0,WNW,16.1,24.2,N/A,,Clear,290,2013-08-31 19:55:00
3:15 PM,80.6,60.8,51,29.74,10.0,WNW,20.7,-,N/A,,Clear,290,2013-08-31 20:15:00
3:35 PM,80.6,57.2,45,29.74,10.0,West,23.0,27.6,N/A,,Clear,280,2013-08-31 20:35:00
3:55 PM,78.8,57.2,47,29.74,10.0,West,23.0,-,N/A,,Clear,280,2013-08-31 20:55:00
4:15 PM,78.8,59.0,51,29.75,10.0,West,21.9,29.9,N/A,,Clear,270,2013-08-31 21:15:00
4:35 PM,80.6,59.0,48,29.74,10.0,West,21.9,26.5,N/A,,Clear,280,2013-08-31 21:35:00
4:55 PM,80.6,60.8,51,29.74,10.0,WNW,24.2,28.8,N/A,,Clear,290,2013-08-31 21:55:00
5:15 PM,80.6,60.8,51,29.74,10.0,NW,28.8,34.5,N/A,,Partly Cloudy,310,2013-08-31 22:15:00
5:35 PM,78.8,57.2,47,29.75,10.0,NW,27.6,33.4,N/A,,Partly Cloudy,310,2013-08-31 22:35:00
5:55 PM,78.8,57.2,47,29.76,10.0,NW,27.6,32.2,N/A,,Clear,310,2013-08-31 22:55:00
6:15 PM,77.0,57.2,50,29.78,10.0,NW,25.3,33.4,N/A,,Partly Cloudy,320,2013-08-31 23:15:00
6:35 PM,75.2,57.2,53,29.79,10.0,NNW,20.7,27.6,N/A,,Partly Cloudy,330,2013-08-31 23:35:00
6:55 PM,73.4,55.4,53,29.79,10.0,NW,18.4,24.2,N/A,,Partly Cloudy,320,2013-08-31 23:55:00
8:15 PM,71.6,64.4,78,29.81,-9999.0,NW,12.7,17.3,N/A,,Unknown,320,2013-09-01 01:15:00
8:35 PM,71.6,55.4,57,29.81,10.0,NW,13.8,-,N/A,,Clear,310,2013-09-01 01:35:00
8:55 PM,69.8,53.6,56,29.83,10.0,NW,17.3,20.7,N/A,,Clear,310,2013-09-01 01:55:00
9:15 PM,69.8,53.6,56,29.84,10.0,NW,13.8,-,N/A,,Clear,320,2013-09-01 02:15:00
9:35 PM,68.0,55.4,64,29.85,10.0,NNW,12.7,-,N/A,,Clear,340,2013-09-01 02:35:00
9:55 PM,66.2,55.4,68,29.86,10.0,NNW,11.5,-,N/A,,Clear,330,2013-09-01 02:55:00
10:15 PM,66.2,55.4,68,29.87,10.0,NNW,10.4,-,N/A,,Clear,330,2013-09-01 03:15:00
10:35 PM,66.2,55.4,68,29.88,10.0,NNW,10.4,-,N/A,,Clear,340,2013-09-01 03:35:00
10:55 PM,66.2,55.4,68,29.88,10.0,NNW,16.1,21.9,N/A,,Clear,340,2013-09-01 03:55:00
11:15 PM,66.2,55.4,68,29.88,10.0,NNW,12.7,-,N/A,,Clear,330,2013-09-01 04:15:00
11:35 PM,64.4,55.4,73,29.89,10.0,NNW,10.4,-,N/A,,Partly Cloudy,340,2013-09-01 04:35:00
11:55 PM,64.4,55.4,73,29.89,10.0,NNW,11.5,16.1,N/A,,Clear,340,2013-09-01 04:55:00